This demonstration page uses our WeatherBlox Daily Observations layout. Learn more.

Left ArrowRight Arrow

Hourly Observations for November 6, 2020

Temp ( °F °C ) Dew Point ( °F °C ) Humidity (%) Winds ( mph kmh ) Pressure ( in mb ) Visibility ( mi km ) Precip ( " mm )
12:15 am 00:15 Clear 48 9 46 8 94 94 S 6 9 30.27 1025 10 16 N/A
12:35 am 00:35 Clear 46 8 46 8 100 100 SSE 6 9 30.28 1025 10 16 N/A
12:55 am 00:55 Clear 46 8 46 8 100 100 S 6 9 30.28 1025 10 16 N/A
1:15 am 01:15 Clear 46 8 46 8 100 100 S 7 11 30.28 1025 10 16 N/A
1:35 am 01:35 Clear 46 8 46 8 100 100 S 7 11 30.28 1025 10 16 N/A
1:55 am 01:55 Clear 46 8 46 8 100 100 S 7 11 30.28 1025 10 16 N/A
2:15 am 02:15 Clear 46 8 46 8 100 100 S 7 11 30.27 1025 10 16 N/A
2:35 am 02:35 Clear 46 8 46 8 100 100 S 7 11 30.28 1025 10 16 N/A
2:55 am 02:55 Clear 45 7 45 7 100 100 SSE 6 9 30.28 1025 10 16 N/A
3:15 am 03:15 Clear 45 7 45 7 100 100 S 7 11 30.27 1025 10 16 N/A
3:35 am 03:35 Clear 45 7 45 7 100 100 S 6 9 30.28 1025 10 16 N/A
3:55 am 03:55 Clear 45 7 45 7 100 100 N N/A 30.28 1025 10 16 N/A
4:15 am 04:15 Clear 43 6 43 6 100 100 SSE 5 7 30.28 1026 10 16 N/A
4:35 am 04:35 Clear 43 6 43 6 100 100 SSE 5 7 30.28 1026 10 16 N/A
4:55 am 04:55 Clear 43 6 43 6 100 100 SSE 3 6 30.28 1026 10 16 N/A
5:15 am 05:15 Clear 43 6 43 6 100 100 SSE 5 7 30.29 1026 10 16 N/A
5:35 am 05:35 Clear 43 6 43 6 100 100 SSE 5 7 30.29 1026 10 16 N/A
5:55 am 05:55 Clear 41 5 41 5 100 100 SSE 5 7 30.30 1026 10 16 N/A
6:15 am 06:15 Clear 43 6 43 6 100 100 S 6 9 30.29 1026 10 16 N/A
6:35 am 06:35 Clear 41 5 41 5 100 100 SSE 3 6 30.31 1026 10 16 N/A
6:55 am 06:55 Clear 41 5 41 5 100 100 SSE 6 9 30.31 1026 10 16 N/A
7:15 am 07:15 Clear 43 6 43 6 100 100 SSE 6 9 30.30 1026 10 16 N/A
7:35 am 07:35 Sunny 43 6 43 6 100 100 SSE 7 11 30.30 1026 10 16 N/A
7:55 am 07:55 Sunny 43 6 43 6 100 100 SSE 6 9 30.30 1026 10 16 N/A
8:15 am 08:15 Sunny 46 8 46 8 100 100 S 3 6 30.31 1026 10 16 N/A
8:35 am 08:35 Sunny 48 9 48 9 100 100 S 3 6 30.30 1026 10 16 N/A
8:55 am 08:55 Sunny 50 10 48 9 94 94 S 5 7 30.31 1026 10 16 N/A
9:15 am 09:15 Sunny 52 11 50 10 94 94 S 5 7 30.32 1027 10 16 N/A
9:35 am 09:35 Sunny 54 12 50 10 88 88 S 6 9 30.31 1027 10 16 N/A
9:55 am 09:55 Sunny 55 13 52 11 88 88 S 6 9 30.31 1026 10 16 N/A
10:15 am 10:15 Sunny 57 14 50 10 77 77 S 5 7 30.31 1026 10 16 N/A
10:35 am 10:35 Sunny 59 15 52 11 77 77 SSW 7 11 30.29 1026 10 16 N/A
10:55 am 10:55 Sunny 61 16 52 11 72 72 SSW 8 13 30.29 1026 10 16 N/A
11:15 am 11:15 Sunny 64 18 52 11 64 64 S 8 13 30.28 1026 10 16 N/A
11:35 am 11:35 Sunny 64 18 52 11 64 64 SSW 8 13 30.27 1025 10 16 N/A
11:55 am 11:55 Sunny 66 19 52 11 60 60 SSW 12 19 30.26 1025 10 16 N/A
12:15 pm 12:15 Sunny 68 20 52 11 56 56 S 12 19 30.25 1024 10 16 N/A
12:35 pm 12:35 Sunny 68 20 52 11 56 56 SSW 14 22 30.24 1024 10 16 N/A
12:55 pm 12:55 Sunny 70 21 52 11 53 53 SSW 13 20 30.23 1024 10 16 N/A
1:15 pm 13:15 Sunny 70 21 50 10 50 50 SSW 14 22 30.22 1024 10 16 N/A
1:35 pm 13:35 Sunny 70 21 50 10 50 50 SW 13 20 30.22 1024 10 16 N/A
1:55 pm 13:55 Sunny 70 21 50 10 50 50 SSW 8 13 30.21 1023 10 16 N/A
2:15 pm 14:15 Sunny 72 22 52 11 50 50 S 9 15 30.21 1023 10 16 N/A
2:35 pm 14:35 Sunny 72 22 50 10 47 47 SSW 7 11 30.21 1023 10 16 N/A
2:55 pm 14:55 Sunny 72 22 50 10 47 47 SSW 3 6 30.20 1023 10 16 N/A
3:15 pm 15:15 Sunny 72 22 50 10 47 47 SW 8 13 30.20 1023 10 16 N/A
3:35 pm 15:35 Sunny 72 22 50 10 47 47 S 8 13 30.20 1023 10 16 N/A
3:55 pm 15:55 Sunny 72 22 50 10 47 47 SSW 9 15 30.20 1023 10 16 N/A
4:15 pm 16:15 Sunny 70 21 50 10 50 50 SSW 6 9 30.21 1023 10 16 N/A
4:35 pm 16:35 Sunny 70 21 50 10 50 50 S 8 13 30.20 1023 10 16 N/A
4:55 pm 16:55 Sunny 68 20 50 10 53 53 S 6 9 30.21 1023 10 16 N/A
5:15 pm 17:15 Sunny 66 19 48 9 52 52 S 3 6 30.21 1023 10 16 N/A
5:35 pm 17:35 Sunny 64 18 48 9 56 56 N N/A 30.22 1024 10 16 N/A
5:55 pm 17:55 Clear 63 17 48 9 59 59 N N/A 30.23 1024 10 16 N/A
6:15 pm 18:15 Clear 61 16 48 9 63 63 SSE 5 7 30.24 1024 10 16 N/A
6:35 pm 18:35 Clear 59 15 48 9 68 68 SSE 6 9 30.24 1024 10 16 N/A
6:55 pm 18:55 Clear 59 15 48 9 68 68 SSE 5 7 30.24 1024 10 16 N/A
7:15 pm 19:15 Clear 57 14 48 9 72 72 SSE 6 9 30.25 1024 10 16 N/A
7:35 pm 19:35 Clear 57 14 48 9 72 72 SSE 6 9 30.24 1024 10 16 N/A
7:55 pm 19:55 Clear 57 14 48 9 72 72 SSE 6 9 30.24 1024 10 16 N/A
8:15 pm 20:15 Clear 55 13 48 9 77 77 SSE 5 7 30.24 1024 10 16 N/A
8:35 pm 20:35 Clear 55 13 48 9 77 77 S 6 9 30.24 1024 10 16 N/A
8:55 pm 20:55 Clear 55 13 46 8 72 72 S 6 9 30.24 1024 10 16 N/A
9:15 pm 21:15 Clear 55 13 46 8 72 72 S 5 7 30.24 1024 10 16 N/A
9:35 pm 21:35 Clear 54 12 46 8 77 77 S 6 9 30.24 1024 10 16 N/A
9:55 pm 21:55 Clear 54 12 46 8 77 77 S 6 9 30.24 1024 10 16 N/A
10:15 pm 22:15 Clear 54 12 46 8 77 77 S 6 9 30.24 1024 10 16 N/A
10:35 pm 22:35 Clear 54 12 46 8 77 77 S 6 9 30.24 1024 10 16 N/A
10:55 pm 22:55 Clear 52 11 46 8 82 82 S 6 9 30.25 1024 10 16 N/A
11:15 pm 23:15 Clear 52 11 46 8 82 82 S 6 9 30.25 1024 10 16 N/A
11:35 pm 23:35 Clear 52 11 46 8 82 82 S 6 9 30.25 1024 10 16 N/A
11:55 pm 23:55 Clear 52 11 46 8 82 82 N N/A 30.25 1024 10 16 N/A

Powered by AerisWeather